Ostrava, Czech Republic

7:31 PM CET on March 25, 2017 (GMT +0100)
Mosnov

Weather History for LKMT - May, 2013

Change the Weather History Date:

Monday, May 6, 2013

  Actual Average Record
Temperature  
Mean Temperature 62 °F -  
Max Temperature 72 °F 67 °F - ()
Min Temperature 51 °F 46 °F - ()
Degree Days  
Heating Degree Days 4    
Growing Degree Days 12 (Base 50)    
Moisture  
Dew Point 54 °F    
Average Humidity 78    
Maximum Humidity 94    
Minimum Humidity 48    
Precipitation  
Precipitation 0.00 in 0.12 in - ()
Sea Level Pressure  
Sea Level Pressure 30.13 in    
Wind  
Wind Speed 5 mph ()    
Max Wind Speed 12 mph    
Max Gust Speed -    
Visibility 5.4 miles    
Events Rain    
T = Trace of Precipitation, MM = Missing Value Source: Averaged Metar Reports

Daily Weather History Graph

Daily Weather History Graph

Search for Another Location

Airport or City:

Trip Planner

Search our weather history database for the weather conditions in past years. The results will help you decide how hot, cold, wet, or windy it might be!

Date:

Astronomy

May. 06, 2013 Rise Set
Actual Time 5:16 AM CEST 8:12 PM CEST
Civil Twilight 4:39 AM CEST 8:50 PM CEST
Nautical Twilight 3:51 AM CEST 9:38 PM CEST
Astronomical Twilight 2:52 AM CEST 10:38 PM CEST
Moon 3:29 AM CEST (5/6) 4:37 PM CEST (5/6)
Length of Visible Light 16h 11m
Length of Day
14h 56m
Waning Crescent, 13% of the Moon is Illuminated
May 6
Waning Crescent
May 10
New
May 18
First Quarter
May 25
Full
May 31
Last Quarter

Hourly Weather History & Observations

Time (CEST) Temp. Dew Point Humidity Pressure Visibility Wind Dir Wind Speed Gust Speed Precip Events Conditions
12:00 AM 55.4 °F 51.8 °F 88% 30.21 in - NE 4.6 mph - N/A   Clear
12:30 AM 55.4 °F 51.8 °F 88% 30.21 in - NE 5.8 mph - N/A   Clear
1:00 AM 55.4 °F 53.6 °F 94% 30.21 in - NE 5.8 mph - N/A   Clear
1:30 AM 55.4 °F 53.6 °F 94% 30.21 in - NE 5.8 mph - N/A   Clear
2:00 AM 54 °F 52 °F 90% 30.21 in 6 mi NNE 6.7 mph - -   Mostly Cloudy
2:00 AM 55.4 °F 51.8 °F 88% 30.18 in - NNE 5.8 mph - N/A   Clear
2:30 AM 55.4 °F 51.8 °F 88% 30.18 in - NE 5.8 mph - N/A   Clear
3:00 AM 53.6 °F 51.8 °F 94% 30.18 in - NE 5.8 mph - N/A   Clear
3:30 AM 53.6 °F 51.8 °F 94% 30.18 in - NNE 6.9 mph - N/A   Clear
4:00 AM 53.6 °F 51.8 °F 94% 30.18 in - NE 5.8 mph - N/A   Clear
4:30 AM 51.8 °F 50.0 °F 94% 30.18 in 4.3 mi NNE 5.8 mph - N/A   Unknown
5:00 AM 51.8 °F 50.0 °F 94% 30.18 in 3.1 mi NE 4.6 mph - N/A   Mist
5:30 AM 51.8 °F 50.0 °F 94% 30.18 in 3.1 mi Variable 2.3 mph - N/A   Mist
6:00 AM 51.8 °F 50.0 °F 94% 30.18 in 3.7 mi NE 2.3 mph - N/A   Unknown
6:30 AM 51.8 °F 50.0 °F 94% 30.18 in 3.7 mi NE 3.5 mph - N/A   Unknown
7:00 AM 53.6 °F 51.8 °F 94% 30.18 in 3.7 mi Variable 1.2 mph - N/A   Unknown
7:30 AM 55.4 °F 51.8 °F 88% 30.18 in 3.7 mi Variable 2.3 mph - N/A   Unknown
8:00 AM 55 °F 52 °F 87% 30.20 in 4 mi 2.2 mph - - Rain Light Rain
8:00 AM 55.4 °F 51.8 °F 88% 30.18 in 3.7 mi Variable 1.2 mph - N/A Rain Light Rain
8:30 AM 57.2 °F 51.8 °F 82% 30.18 in 4.3 mi NW 3.5 mph - N/A   Unknown
9:00 AM 57.2 °F 53.6 °F 88% 30.18 in 5.0 mi NNE 8.1 mph - N/A   Unknown
9:30 AM 59.0 °F 53.6 °F 82% 30.18 in 5.0 mi NE 5.8 mph - N/A Rain Light Rain
10:00 AM 60.8 °F 53.6 °F 77% 30.18 in 5.6 mi NNE 5.8 mph - N/A   Unknown
10:30 AM 60.8 °F 53.6 °F 77% 30.18 in - NE 4.6 mph - N/A   Clear
11:00 AM 62.6 °F 53.6 °F 72% 30.18 in - NNE 5.8 mph - N/A   Clear
11:30 AM 64.4 °F 53.6 °F 68% 30.15 in - North 6.9 mph - N/A   Clear
12:00 PM 66.2 °F 53.6 °F 64% 30.15 in - NNE 5.8 mph - N/A   Clear
12:30 PM 66.2 °F 55.4 °F 68% 30.15 in - NNE 6.9 mph - N/A   Clear
1:00 PM 68.0 °F 53.6 °F 60% 30.15 in - NNE 8.1 mph - N/A   Clear
1:30 PM 69.8 °F 55.4 °F 60% 30.12 in - NE 6.9 mph - N/A   Clear
2:00 PM 70 °F 55 °F 48% 30.12 in 22 mi NNE 8.9 mph - -   Partly Cloudy
2:00 PM 69.8 °F 55.4 °F 60% 30.12 in 6.2 mi NNE 8.1 mph - N/A   Partly Cloudy
2:30 PM 71.6 °F 55.4 °F 57% 30.12 in 6.2 mi ENE 9.2 mph - N/A   Partly Cloudy
3:00 PM 69.8 °F 55.4 °F 60% 30.09 in 6.2 mi ENE 10.4 mph - N/A   Partly Cloudy
3:30 PM 69.8 °F 55.4 °F 60% 30.09 in 6.2 mi NE 10.4 mph - N/A   Partly Cloudy
4:00 PM 71.6 °F 57.2 °F 60% 30.09 in 6.2 mi NE 9.2 mph - N/A   Partly Cloudy
4:30 PM 71.6 °F 55.4 °F 57% 30.06 in - NNE 9.2 mph - N/A   Clear
5:00 PM 69.8 °F 57.2 °F 64% 30.06 in - NNE 8.1 mph - N/A   Clear
5:30 PM 71.6 °F 55.4 °F 57% 30.06 in - NE 6.9 mph - N/A   Clear
6:00 PM 69.8 °F 53.6 °F 56% 30.06 in - ENE 11.5 mph - N/A   Clear
6:30 PM 68.0 °F 55.4 °F 64% 30.06 in - NE 8.1 mph - N/A   Clear
7:00 PM 66.2 °F 55.4 °F 68% 30.06 in - ENE 5.8 mph - N/A   Clear
7:30 PM 66.2 °F 57.2 °F 73% 30.06 in - Variable 2.3 mph - N/A   Clear
8:00 PM 65 °F 58 °F 71% 30.06 in 16 mi 2.2 mph - - Rain Light Rain
8:00 PM 64.4 °F 57.2 °F 77% 30.06 in 6.2 mi Variable 1.2 mph - N/A Rain Light Rain
8:30 PM 66.2 °F 57.2 °F 73% 30.06 in - Calm Calm - N/A   Clear
9:00 PM 64.4 °F 59.0 °F 83% 30.06 in 6.2 mi East 3.5 mph - N/A Rain Light Rain
9:30 PM 64.4 °F 57.2 °F 77% 30.09 in - Variable 2.3 mph - N/A   Clear
10:00 PM 62.6 °F 57.2 °F 82% 30.06 in 6.2 mi ENE 2.3 mph - N/A Rain Light Rain
10:30 PM 62.6 °F 57.2 °F 82% 30.06 in - Calm Calm - N/A   Clear
11:00 PM 60.8 °F 59.0 °F 94% 30.06 in - Variable 2.3 mph - N/A   Clear
11:30 PM 60.8 °F 57.2 °F 88% 30.06 in - Variable 1.2 mph - N/A   Clear